sat.trackr.live / text

‹ back to catalog

WGS F9 (USA 275)

NORAD 42075 · 2017-016A

PAYLOAD ACTIVE UNKNOWN

§ Identity

Operator
Country
US
Launch date
2017-03-19
Launch site
AFETR
Launch vehicle
Mass (kg)
RCS (m²)

Purposes: comms

External: N2YO · Heavens-Above · Gunter

§ Orbital elements

Epoch: 2026-05-24T20:50:31.298784Z

Period
1,436.10 min
Inclination
0.0130°
Eccentricity
0.0000262
Mean motion
1.00271689 rev/d
Perigee alt
35,785.5 km
Apogee alt
35,787.7 km
Semi-major
42,164.8 km
B*
0.0000e+0
RAAN
272.1294°
Arg perigee
58.6201°
Mean anomaly
212.3328°
Rev number
3,366

§ Raw data

WGS F9 (USA 275)1 42075U 17016A   26144.86841781 -.00000100  00000+0  00000+0 0  99932 42075   0.0130 272.1294 0000262  58.6201 212.3328  1.00271689 33666

JSON: /api/v1/satellites/42075 · /tle

For live sub-satellite position, see the globe view (requires WebGL).

§ Visibility from observer

Set your observer location to see the next 7 days of passes ≥ 10°. The values pass through the URL so the page stays shareable.

No JS? Fill the form by hand. The geolocation button needs JavaScript.